Location: Observatoire de l'Aigle
(47.0607°N, 71.3152°W)
Time: 00:37:41
(UTC-05:00)

Amateur Radio Satellites - All Passes

Search period start: 12 February 2016 00:07
Search period end: 13 February 2016 00:07
Location: Observatoire de l'Aigle, 47.0607°N, 71.3152°W

Satellite Date Start Highest point End Downlink Frequencies (MHz)
Time Altitude Azimuth
DANDE 12 Feb 00:15:56 00:22:08 25° 81° (E) 00:28:32 436.750
BUGSAT 1 12 Feb 00:17:52 00:21:46 46° 289° (WNW) 00:25:36 437.445
SWISSCUBE 12 Feb 00:24:08 00:28:43 49° 69° (ENE) 00:33:21 437.505
POLYITAN 1 12 Feb 00:28:18 00:31:28 21° 296° (WNW) 00:34:38 437.675
QB50P2 12 Feb 00:28:54 00:32:00 20° 297° (WNW) 00:35:06 145.880/145.840
BEESAT 3 12 Feb 00:30:40 00:34:38 65° 51° (NE) 00:38:33 437.485
KKS-1 12 Feb 00:39:33 00:40:43 11° 56° (NE) 00:41:53 437.445
Oscar 19 12 Feb 00:58:28 01:03:26 48° 99° (E) 01:08:23 437.125/150
BEESAT 2 12 Feb 00:58:54 01:02:56 81° 55° (NE) 01:06:55 435.950
POPSAT HIP 1 12 Feb 00:59:23 01:00:54 12° 302° (WNW) 01:02:25 437.405
TISAT 1 12 Feb 00:59:37 01:02:23 17° 269° (W) 01:05:10 437.305
YUBILEINY 12 Feb 01:01:06 01:06:45 19° 75° (ENE) 01:12:24 435.215
ITUPSAT 1 12 Feb 01:01:57 01:06:44 83° 256° (WSW) 01:11:34 437.325
NANOSAT C BR1 12 Feb 01:02:55 01:04:09 11° 302° (WNW) 01:05:22 145.865
DUCHIFAT 1 12 Feb 01:03:13 01:04:35 11° 302° (WNW) 01:05:55 145.980
CUSAT 1 12 Feb 01:04:10 01:12:13 73° 97° (E) 01:20:01 437.405
PHONESAT 2.4 12 Feb 01:05:08 01:07:48 23° 171° (S) 01:10:27 2401.200-2431.200
BEESAT 12 Feb 01:09:00 01:13:44 71° 257° (WSW) 01:18:31 436.000
JAS-2 12 Feb 01:22:18 01:27:54 55° 100° (E) 01:33:01 435.910
AIST 2 12 Feb 01:33:57 01:37:33 27° 41° (NE) 01:41:07 435.215
Gurwin Techsat 1B 12 Feb 01:47:23 01:52:37 52° 100° (E) 01:57:48 435.225
STARS 12 Feb 01:49:48 01:53:31 27° 65° (ENE) 01:57:14 437.465
DANDE 12 Feb 01:56:03 02:04:09 87° 280° (W) 02:12:41 436.750
Cosmos 2491 12 Feb 02:01:38 02:10:25 80° 264° (W) 02:19:11 435.465 / 435.565
SWISSCUBE 12 Feb 02:03:10 02:06:48 21° 268° (W) 02:10:28 437.505
BEESAT 3 12 Feb 02:09:43 02:11:55 14° 249° (WSW) 02:14:06 437.485
KKS-1 12 Feb 02:12:05 02:16:32 78° 74° (ENE) 02:21:00 437.445
ITAMSAT 1 12 Feb 02:12:12 02:17:16 46° 99° (E) 02:22:17 435.822/435.867
AO-7 12 Feb 02:13:05 02:18:52 20° 89° (E) 02:24:35 29.400- 29.500
MOZHAYETS 4 12 Feb 02:22:24 02:26:39 40° 69° (ENE) 02:30:58
Oscar 19 12 Feb 02:38:19 02:42:31 26° 298° (WNW) 02:46:41 437.125/150
BEESAT 2 12 Feb 02:38:48 02:40:13 12° 251° (WSW) 02:41:38 435.950
PHONESAT 2.4 12 Feb 02:41:50 02:44:33 24° 188° (S) 02:47:14 2401.200-2431.200
ITUPSAT 1 12 Feb 02:44:29 02:45:21 10° 274° (W) 02:46:13 437.325
CUSAT 1 12 Feb 02:48:05 02:55:07 31° 296° (WNW) 03:01:50 437.405
YUBILEINY 12 Feb 02:53:21 03:02:08 83° 97° (E) 03:11:02 435.215
Cosmos 2504 12 Feb 03:01:32 03:08:09 25° 78° (ENE) 03:14:52 435.465 / 435.565
JAS-2 12 Feb 03:08:04 03:12:34 24° 302° (WNW) 03:16:47 435.910
CUBESAT XI-V 12 Feb 03:11:05 03:14:02 17° 60° (ENE) 03:17:01 437.345
AIST 2 12 Feb 03:12:15 03:16:12 43° 240° (WSW) 03:20:06 435.215
SO-50 12 Feb 03:16:27 03:20:05 21° 112° (ESE) 03:23:45 436.795
STARS 12 Feb 03:25:47 03:29:47 34° 263° (W) 03:33:49 437.465
Gurwin Techsat 1B 12 Feb 03:27:57 03:32:15 26° 299° (WNW) 03:36:34 435.225
HORYU 2 12 Feb 03:27:57 03:31:28 22° 94° (E) 03:34:58 437.375
DANDE 12 Feb 03:41:45 03:48:18 25° 302° (WNW) 03:54:57 436.750
KKS-1 12 Feb 03:51:53 03:53:40 12° 272° (W) 03:55:27 437.445
ITAMSAT 1 12 Feb 03:52:07 03:56:31 28° 298° (WNW) 04:00:54 435.822/435.867
MOZHAYETS 4 12 Feb 04:00:15 04:03:59 24° 267° (W) 04:07:45
Cosmos 2491 12 Feb 04:00:27 04:05:48 18° 286° (WNW) 04:11:09 435.465 / 435.565
AO-7 12 Feb 04:04:25 04:12:49 86° 110° (ESE) 04:21:08 29.400- 29.500
PHONESAT 2.4 12 Feb 04:19:54 04:21:08 12° 204° (SSW) 04:22:23 2401.200-2431.200
M-CUBED/EXP-1 PRIME 12 Feb 04:29:30 04:32:54 88° 285° (WNW) 04:36:29 437.505
AUBIESAT-1 12 Feb 04:37:05 04:40:32 87° 291° (WNW) 04:44:12 437.475
CUBESAT XI-V 12 Feb 04:46:12 04:50:53 70° 258° (WSW) 04:55:38 437.345
STRAND 1 12 Feb 04:48:02 04:52:00 23° 61° (ENE) 04:56:00 437.568
Cosmos 2504 12 Feb 04:51:47 05:00:30 83° 280° (W) 05:09:29 435.465 / 435.565
YUBILEINY 12 Feb 04:53:04 05:00:05 26° 300° (WNW) 05:07:12 435.215
SO-50 12 Feb 04:55:15 05:00:10 66° 311° (NW) 05:05:07 436.795
HORYU 2 12 Feb 05:04:01 05:08:12 42° 291° (WNW) 05:12:24 437.375
PRISM 12 Feb 05:19:41 05:21:24 12° 58° (ENE) 05:23:09 437.425
LilacSat-2 12 Feb 05:20:21 05:23:07 19° 93° (E) 05:25:53 437.200
BRITE-PL 12 Feb 05:40:56 05:44:33 22° 90° (E) 05:47:57 437.365/2234.400
CUTE-I 12 Feb 05:46:49 05:51:59 45° 99° (E) 05:57:08 437.470
O/OREOS (USA 219) 12 Feb 05:55:51 05:56:50 11° 96° (E) 05:57:49 437.305
AO-7 12 Feb 05:58:04 06:04:42 28° 311° (NW) 06:11:20 29.400- 29.500
Cubesat XI-IV 12 Feb 06:01:15 06:06:36 59° 101° (ESE) 06:11:54 437.490
STRAND 1 12 Feb 06:25:48 06:30:49 55° 259° (W) 06:35:54 437.568
GONETS M04 12 Feb 06:28:10 06:32:36 15° 72° (ENE) 06:37:02
GOMX 1 12 Feb 06:33:43 06:37:45 34° 95° (E) 06:41:36 467.674
SO-50 12 Feb 06:38:11 06:41:35 18° 332° (NNW) 06:45:00 436.795
Cosmos 2504 12 Feb 06:48:53 06:55:23 22° 303° (WNW) 07:02:00 435.465 / 435.565
PRISM 12 Feb 06:51:57 06:56:07 82° 254° (WSW) 07:00:21 437.425
LilacSat-2 12 Feb 06:54:06 06:57:35 35° 290° (WNW) 07:01:03 437.200
CANX-2 12 Feb 06:58:17 07:00:57 16° 90° (E) 07:03:36 2200.000
BRITE-PL 12 Feb 07:18:48 07:23:21 44° 291° (WNW) 07:27:33 437.365/2234.400
CUTE-I 12 Feb 07:27:14 07:31:51 30° 297° (WNW) 07:36:27 437.470
HO-68 12 Feb 07:30:15 07:36:55 38° 97° (E) 07:43:30 435.675
O/OREOS (USA 219) 12 Feb 07:30:58 07:35:28 89° 293° (WNW) 07:40:02 437.305
COMPASS 1 12 Feb 07:31:20 07:34:14 18° 91° (E) 07:37:06 437.405
DOVE 4 12 Feb 07:39:50 07:44:06 86° 102° (ESE) 07:48:15 437.250
ANTELSAT 12 Feb 07:41:54 07:42:38 10° 57° (ENE) 07:43:22 437.575/2403.000
Cubesat XI-IV 12 Feb 07:42:05 07:46:16 24° 300° (WNW) 07:50:27 437.490
TIGRISAT 12 Feb 07:47:15 07:48:34 11° 58° (ENE) 07:49:54 435.000
CUTE 1.7 + AOD 2 12 Feb 07:47:24 07:51:32 44° 98° (E) 07:55:38 437.475
SEEDS 12 Feb 07:49:22 07:53:18 35° 97° (E) 07:57:13 437.485
Oscar 11 12 Feb 07:52:00 07:52:41 10° 87° (E) 07:53:22 145.826/435.025
Cosmos 2499 12 Feb 07:54:55 08:01:43 26° 79° (E) 08:08:32 435.465 / 435.565
AAUSAT CUBESAT 2 12 Feb 07:57:01 08:00:36 26° 94° (E) 08:04:10 437.432
UWE-3 12 Feb 08:01:31 08:03:53 15° 90° (E) 08:06:16 435.000/436.395/437.385
CUBEBUG 2 12 Feb 08:05:31 08:08:46 21° 93° (E) 08:12:03 437.445
GOMX 1 12 Feb 08:12:05 08:15:45 26° 295° (WNW) 08:19:14 467.674
CINEMA 3 12 Feb 08:15:21 08:19:31 71° 103° (ESE) 08:23:42 145.822/145.860
AO-85 12 Feb 08:18:33 08:21:42 16° 107° (ESE) 08:24:55 145.980
GONETS M04 12 Feb 08:19:07 08:27:43 71° 94° (E) 08:36:24
UNISAT 6 12 Feb 08:30:03 08:33:47 29° 67° (ENE) 08:37:29 437.425
CANX-2 12 Feb 08:32:57 08:37:10 56° 288° (WNW) 08:41:22 2200.000
POPSAT HIP 1 12 Feb 08:44:14 08:45:45 12° 58° (ENE) 08:47:16 437.405
NANOSAT C BR1 12 Feb 08:47:03 08:48:45 12° 58° (ENE) 08:50:28 145.865
DUCHIFAT 1 12 Feb 08:47:28 08:49:01 12° 58° (ENE) 08:50:33 145.980
ZACube-1 12 Feb 08:48:38 08:52:25 31° 96° (E) 08:56:16 437.345
DELFI C3 12 Feb 08:50:45 08:54:01 23° 94° (E) 08:57:15 145.870
QB50P1 12 Feb 08:55:32 08:57:59 15° 61° (ENE) 09:00:28 145.935-145.965
FUNcube-1 12 Feb 08:56:14 09:00:09 35° 97° (E) 09:04:06 145.935
COMPASS 1 12 Feb 09:05:59 09:10:04 48° 289° (WNW) 09:14:09 437.405
O/OREOS (USA 219) 12 Feb 09:13:05 09:15:36 15° 315° (NW) 09:18:08 437.305
ANTELSAT 12 Feb 09:14:21 09:18:39 82° 73° (ENE) 09:22:56 437.575/2403.000
AIST 1 12 Feb 09:15:04 09:18:39 25° 88° (E) 09:22:16
HO-68 12 Feb 09:17:54 09:24:47 50° 296° (WNW) 09:31:38 435.675
DOVE 4 12 Feb 09:19:48 09:21:09 11° 303° (WNW) 09:22:29 437.250
TIGRISAT 12 Feb 09:20:19 09:24:37 89° 63° (ENE) 09:28:54 435.000
CUTE 1.7 + AOD 2 12 Feb 09:23:53 09:27:07 21° 296° (WNW) 09:30:21 437.475
Oscar 11 12 Feb 09:25:03 09:29:27 87° 281° (W) 09:33:48 145.826/435.025
SEEDS 12 Feb 09:25:22 09:28:52 25° 294° (WNW) 09:32:22 437.485
AAUSAT CUBESAT 2 12 Feb 09:32:23 09:36:08 32° 292° (WNW) 09:39:52 437.432
BUGSAT 1 12 Feb 09:36:08 09:39:08 20° 63° (ENE) 09:42:08 437.445
UWE-3 12 Feb 09:36:35 09:40:44 59° 287° (WNW) 09:44:57 435.000/436.395/437.385
CUBEBUG 2 12 Feb 09:41:39 09:45:33 39° 290° (WNW) 09:49:31 437.445
Cosmos 2499 12 Feb 09:45:04 09:53:53 81° 280° (W) 10:02:49 435.465 / 435.565
POLYITAN 1 12 Feb 09:47:18 09:51:21 47° 71° (ENE) 09:55:25 437.675
QB50P2 12 Feb 09:47:46 09:51:52 49° 71° (ENE) 09:55:57 145.880/145.840
CINEMA 3 12 Feb 09:54:11 09:56:09 13° 300° (WNW) 09:58:08 145.822/145.860
AO-85 12 Feb 09:56:04 10:01:29 87° 126° (SE) 10:07:02 145.980
ESTCUBE 1 12 Feb 09:59:43 10:02:00 14° 88° (E) 10:04:18 437.505/2401.250
PCSat 12 Feb 10:00:13 10:05:31 59° 118° (ESE) 10:10:53 145.827
CUSAT 1 12 Feb 10:00:55 10:01:21 10° 46° (NE) 10:01:47 437.405
SO-50 12 Feb 10:04:06 10:06:47 14° 22° (NNE) 10:09:28 436.795
UNISAT 6 12 Feb 10:06:43 10:10:29 29° 265° (W) 10:14:14 437.425
50 SAT 12 Feb 10:07:06 10:09:18 15° 91° (E) 10:11:30 437.505
RS-15 12 Feb 10:07:30 10:17:38 43° 109° (ESE) 10:28:14 29.354- 29.394
POPSAT HIP 1 12 Feb 10:16:40 10:20:54 87° 256° (WSW) 10:25:10 437.405
GONETS M04 12 Feb 10:17:58 10:25:21 30° 297° (WNW) 10:32:49
NANOSAT C BR1 12 Feb 10:19:41 10:23:54 83° 255° (WSW) 10:28:08 145.865
DUCHIFAT 1 12 Feb 10:19:53 10:24:06 86° 254° (WSW) 10:28:20 145.980
HUMSAT D 12 Feb 10:20:18 10:24:31 89° 128° (SE) 10:28:44 437.325/437.525
ZACube-1 12 Feb 10:25:04 10:28:40 28° 293° (WNW) 10:32:18 437.345
DELFI C3 12 Feb 10:25:19 10:29:00 34° 291° (WNW) 10:32:41 145.870
QB50P1 12 Feb 10:29:08 10:33:20 64° 259° (W) 10:37:33 145.935-145.965
FUNcube-1 12 Feb 10:32:51 10:36:16 25° 294° (WNW) 10:39:44 145.935
Oscar 19 12 Feb 10:41:42 10:44:45 16° 56° (ENE) 10:47:47 437.125/150
VELOX 1 12 Feb 10:45:10 10:49:10 32° 96° (E) 10:53:06 145.980
AIST 1 12 Feb 10:52:05 10:56:07 34° 287° (WNW) 11:00:09
DANDE 12 Feb 10:53:25 10:58:27 20° 54° (NE) 11:02:42 436.750
ANTELSAT 12 Feb 10:55:05 10:55:58 11° 273° (W) 10:56:52 437.575/2403.000
UKube-1 12 Feb 11:00:06 11:04:13 40° 99° (E) 11:08:16 .
AISAT 12 Feb 11:02:09 11:06:28 49° 100° (E) 11:10:43 437.250
Oscar 11 12 Feb 11:03:26 11:04:53 11° 302° (WNW) 11:06:19 145.826/435.025
SPROUT 12 Feb 11:05:33 11:08:24 17° 91° (E) 11:11:13 437.525
YUBILEINY 12 Feb 11:05:47 11:08:54 12° 45° (NE) 11:12:01 435.215
HO-68 12 Feb 11:08:00 11:10:52 13° 318° (NW) 11:13:43 435.675
BUGSAT 1 12 Feb 11:10:13 11:14:15 45° 261° (W) 11:18:16 437.445
CUBEBUG 1 12 Feb 11:13:57 11:18:16 54° 100° (E) 11:22:31 437.445
DX 1 12 Feb 11:16:51 11:21:13 71° 103° (ESE) 11:25:33 434.975-435.025
POLYITAN 1 12 Feb 11:24:32 11:27:26 18° 268° (W) 11:30:22 437.675
QB50P2 12 Feb 11:25:08 11:27:58 17° 269° (W) 11:30:49 145.880/145.840
AO-7 12 Feb 11:29:04 11:31:58 12° 32° (NNE) 11:34:52 29.400- 29.500
Gurwin Techsat 1B 12 Feb 11:33:56 11:37:31 19° 58° (ENE) 11:41:05 435.225
ESTCUBE 1 12 Feb 11:34:47 11:39:21 72° 287° (WNW) 11:43:52 437.505/2401.250
JAS-2 12 Feb 11:36:00 11:42:49 41° 65° (ENE) 11:49:01 435.910
AO-85 12 Feb 11:38:13 11:42:43 25° 327° (NNW) 11:47:15 145.980
CUSAT 1 12 Feb 11:39:42 11:45:34 58° 73° (ENE) 11:49:56 437.405
50 SAT 12 Feb 11:39:55 11:43:36 48° 288° (WNW) 11:47:17 437.505
Cosmos 2499 12 Feb 11:42:04 11:48:32 22° 303° (WNW) 11:55:01 435.465 / 435.565
SO-50 12 Feb 11:43:51 11:48:32 45° 44° (NE) 11:53:05 436.795
PCSat 12 Feb 11:44:33 11:49:17 29° 318° (NW) 11:54:02 145.827
ITAMSAT 1 12 Feb 11:56:28 11:59:35 16° 56° (NE) 12:02:41 435.822/435.867
HUMSAT D 12 Feb 11:58:15 11:59:31 11° 302° (WNW) 12:00:46 437.325/437.525
Oscar 19 12 Feb 12:18:12 12:23:23 87° 255° (WSW) 12:28:36 437.125/150
RS-15 12 Feb 12:18:13 12:29:27 69° 314° (NW) 12:41:22 29.354- 29.394
VELOX 1 12 Feb 12:21:45 12:25:35 29° 294° (WNW) 12:29:23 145.980
DANDE 12 Feb 12:35:36 12:42:44 86° 260° (W) 12:48:03 436.750
UKube-1 12 Feb 12:36:38 12:40:03 23° 297° (WNW) 12:43:27 .
TISAT 1 12 Feb 12:38:47 12:42:56 60° 101° (ESE) 12:47:03 437.305
AISAT 12 Feb 12:39:25 12:42:38 20° 298° (WNW) 12:45:50 437.250
SPROUT 12 Feb 12:40:32 12:44:41 50° 289° (WNW) 12:48:48 437.525
Cosmos 2504 12 Feb 12:50:57 12:53:37 12° 45° (NE) 12:56:15 435.465 / 435.565
CUBEBUG 1 12 Feb 12:51:11 12:54:11 18° 298° (WNW) 12:57:10 437.445
DX 1 12 Feb 12:54:27 12:56:53 15° 301° (WNW) 12:59:18 434.975-435.025
YUBILEINY 12 Feb 12:59:54 13:08:28 49° 72° (ENE) 13:16:55 435.215
ITUPSAT 1 12 Feb 13:00:10 13:03:45 20° 92° (E) 13:07:19 437.325
BEESAT 12 Feb 13:06:33 13:10:26 24° 93° (E) 13:14:16 436.000
Gurwin Techsat 1B 12 Feb 13:11:34 13:16:52 76° 257° (WSW) 13:22:14 435.225
Cosmos 2491 12 Feb 13:12:08 13:18:49 26° 79° (E) 13:25:30 435.465 / 435.565
ESTCUBE 1 12 Feb 13:14:37 13:15:20 10° 305° (NW) 13:16:03 437.505/2401.250
AO-7 12 Feb 13:14:54 13:22:28 40° 56° (NE) 13:30:02 29.400- 29.500
JAS-2 12 Feb 13:20:34 13:27:46 47° 262° (W) 13:34:20 435.910
AO-85 12 Feb 13:22:57 13:25:11 12° 350° (N) 13:27:24 145.980
CUSAT 1 12 Feb 13:23:13 13:26:57 18° 281° (W) 13:30:06 437.405
SO-50 12 Feb 13:24:41 13:28:53 30° 245° (WSW) 13:32:57 436.795
ITAMSAT 1 12 Feb 13:33:09 13:38:21 87° 255° (WSW) 13:43:37 435.822/435.867
PCSat 12 Feb 13:33:11 13:34:35 11° 343° (NNW) 13:35:58 145.827
ISS 12 Feb 13:45:16 13:46:38 12° 134° (SE) 13:47:59 145.825
M-CUBED/EXP-1 PRIME 12 Feb 13:46:29 13:48:53 18° 60° (ENE) 13:51:13 437.505
AUBIESAT-1 12 Feb 13:53:41 13:56:05 18° 60° (ENE) 13:58:26 437.475
SWISSCUBE 12 Feb 13:58:41 14:03:32 78° 103° (ESE) 14:08:20 437.505
Oscar 19 12 Feb 14:01:22 14:03:28 12° 273° (W) 14:05:35 437.125/150
KKS-1 12 Feb 14:02:04 14:03:45 12° 88° (E) 14:05:26 437.445
TISAT 1 12 Feb 14:15:39 14:18:10 16° 299° (WNW) 14:20:41 437.305
DANDE 12 Feb 14:20:42 14:24:08 15° 286° (WNW) 14:27:13 436.750
HORYU 2 12 Feb 14:28:49 14:32:40 30° 66° (ENE) 14:36:33 437.375
RS-15 12 Feb 14:34:09 14:44:32 36° 346° (NNW) 14:55:23 29.354- 29.394
ITUPSAT 1 12 Feb 14:37:12 14:41:54 53° 290° (WNW) 14:46:35 437.325
Cosmos 2504 12 Feb 14:41:28 14:49:47 47° 71° (ENE) 14:57:32 435.465 / 435.565
BEESAT 12 Feb 14:43:51 14:48:25 45° 291° (WNW) 14:52:59 436.000
Gurwin Techsat 1B 12 Feb 14:56:26 14:57:43 11° 275° (W) 14:59:01 435.225
YUBILEINY 12 Feb 14:57:01 15:05:10 43° 274° (W) 15:13:15 435.215
AO-85 12 Feb 15:05:21 15:08:04 14° 15° (NNE) 15:10:43 145.980
Cosmos 2491 12 Feb 15:06:00 15:14:43 78° 281° (W) 15:23:29 435.465 / 435.565
AO-7 12 Feb 15:06:45 15:14:58 58° 257° (WSW) 15:23:13 29.400- 29.500
STARS 12 Feb 15:11:52 15:15:51 33° 97° (E) 15:19:47 437.465
ITAMSAT 1 12 Feb 15:16:26 15:18:36 12° 273° (W) 15:20:46 435.822/435.867
ISS 12 Feb 15:19:20 15:22:33 70° 151° (SSE) 15:25:48 145.825
M-CUBED/EXP-1 PRIME 12 Feb 15:20:07 15:23:23 34° 255° (WSW) 15:26:30 437.505
AUBIESAT-1 12 Feb 15:27:15 15:30:30 34° 256° (WSW) 15:33:39 437.475
CUTE-I 12 Feb 15:34:22 15:37:41 17° 56° (NE) 15:41:00 437.470
KKS-1 12 Feb 15:36:27 15:40:54 79° 286° (WNW) 15:45:19 437.445
SWISSCUBE 12 Feb 15:37:53 15:40:44 16° 302° (WNW) 15:43:35 437.505
Cubesat XI-IV 12 Feb 15:48:15 15:52:11 21° 59° (ENE) 15:56:09 437.490
MOZHAYETS 4 12 Feb 15:50:58 15:55:36 64° 101° (E) 16:00:12
O/OREOS (USA 219) 12 Feb 15:58:51 16:03:08 37° 57° (ENE) 16:07:25 437.305
BEESAT 3 12 Feb 16:01:56 16:05:41 42° 120° (ESE) 16:09:29 437.485
HORYU 2 12 Feb 16:05:19 16:09:13 30° 264° (W) 16:13:09 437.375
LilacSat-2 12 Feb 16:06:00 16:08:24 16° 63° (ENE) 16:10:47 437.200
HO-68 12 Feb 16:22:05 16:22:48 10° 38° (NE) 16:23:31 435.675
BEESAT 2 12 Feb 16:31:21 16:35:17 55° 122° (ESE) 16:39:14 435.950
Cosmos 2504 12 Feb 16:35:09 16:43:08 44° 274° (W) 16:50:35 435.465 / 435.565
CUBESAT XI-V 12 Feb 16:40:16 16:44:06 24° 93° (E) 16:47:53 437.345
AO-85 12 Feb 16:45:25 16:50:15 34° 39° (NE) 16:54:44 145.980
STARS 12 Feb 16:48:24 16:52:08 28° 295° (WNW) 16:55:50 437.465
RS-15 12 Feb 16:50:19 17:01:11 38° 20° (NNE) 17:12:21 29.354- 29.394
BRITE-PL 12 Feb 16:53:09 16:58:22 40° 68° (ENE) 17:03:24 437.365/2234.400
ISS 12 Feb 16:56:05 16:59:10 39° 350° (N) 17:02:16 145.825
PCSat 12 Feb 17:02:14 17:06:24 22° 36° (NE) 17:10:33 145.827
AO-7 12 Feb 17:07:16 17:09:35 11° 278° (W) 17:11:55 29.400- 29.500
Cosmos 2491 12 Feb 17:07:19 17:13:14 20° 305° (NW) 17:19:12 435.465 / 435.565
CUTE-I 12 Feb 17:11:42 17:17:02 86° 255° (WSW) 17:22:26 437.470
DOVE 4 12 Feb 17:12:06 17:15:15 17° 61° (ENE) 17:18:18 437.250
AIST 2 12 Feb 17:13:29 17:16:20 18° 112° (ESE) 17:19:12 435.215
KKS-1 12 Feb 17:15:37 17:16:43 11° 304° (NW) 17:17:49 437.445
Cubesat XI-IV 12 Feb 17:26:30 17:31:47 65° 258° (WSW) 17:37:09 437.490
MOZHAYETS 4 12 Feb 17:29:13 17:32:19 18° 299° (WNW) 17:35:24
O/OREOS (USA 219) 12 Feb 17:38:31 17:42:24 28° 256° (WSW) 17:46:18 437.305
LilacSat-2 12 Feb 17:38:43 17:42:23 46° 261° (W) 17:46:05 437.200
BEESAT 3 12 Feb 17:40:10 17:43:36 26° 319° (NW) 17:47:01 437.485
Cosmos 2499 12 Feb 17:43:33 17:45:50 11° 44° (NE) 17:48:04 435.465 / 435.565
GOMX 1 12 Feb 17:43:35 17:48:48 58° 72° (ENE) 17:53:45 467.674
CINEMA 3 12 Feb 17:45:51 17:47:36 12° 59° (ENE) 17:49:19 145.822/145.860
CANX-2 12 Feb 17:54:16 17:57:05 18° 62° (ENE) 17:59:54 2200.000
HO-68 12 Feb 18:02:03 18:08:36 40° 61° (ENE) 18:15:11 435.675
BEESAT 2 12 Feb 18:10:13 18:13:28 23° 322° (NW) 18:16:43 435.950
CUBESAT XI-V 12 Feb 18:17:12 18:21:40 43° 290° (WNW) 18:26:04 437.345
COMPASS 1 12 Feb 18:25:24 18:28:17 19° 63° (ENE) 18:31:12 437.405
GONETS M04 12 Feb 18:25:34 18:33:49 42° 69° (ENE) 18:42:03
AO-85 12 Feb 18:26:00 18:31:00 49° 241° (WSW) 18:35:35 145.980
BRITE-PL 12 Feb 18:31:44 18:36:51 34° 265° (W) 18:41:49 437.365/2234.400
ISS 12 Feb 18:32:58 18:36:04 40° 11° (N) 18:39:09 145.825
PRISM 12 Feb 18:33:03 18:34:17 11° 88° (E) 18:35:30 437.425
STRAND 1 12 Feb 18:33:10 18:38:02 40° 97° (E) 18:42:52 437.568
CUTE 1.7 + AOD 2 12 Feb 18:42:52 18:46:53 45° 71° (ENE) 18:50:57 437.475
SEEDS 12 Feb 18:44:00 18:47:49 36° 69° (ENE) 18:51:41 437.485
PCSat 12 Feb 18:45:05 18:50:34 89° 57° (ENE) 18:56:00 145.827
DOVE 4 12 Feb 18:47:31 18:52:31 70° 258° (WSW) 18:57:15 437.250
Oscar 11 12 Feb 18:49:11 18:51:13 13° 59° (ENE) 18:53:15 145.826/435.025
AIST 2 12 Feb 18:50:20 18:54:27 58° 311° (NW) 18:58:35 435.215
AAUSAT CUBESAT 2 12 Feb 18:50:22 18:53:51 26° 66° (ENE) 18:57:21 437.432
CUTE-I 12 Feb 18:55:39 18:57:53 13° 274° (W) 19:00:09 437.470
UWE-3 12 Feb 19:01:39 19:04:30 18° 63° (ENE) 19:07:19 435.000/436.395/437.385
RS-15 12 Feb 19:03:46 19:15:56 77° 49° (NE) 19:28:20 29.354- 29.394
CUBEBUG 2 12 Feb 19:06:39 19:10:12 26° 67° (ENE) 19:13:42 437.445
CINEMA 3 12 Feb 19:19:37 19:24:10 88° 255° (WSW) 19:28:32 145.822/145.860
GOMX 1 12 Feb 19:23:09 19:27:10 21° 269° (W) 19:31:02 467.674
CANX-2 12 Feb 19:28:27 19:32:34 53° 260° (W) 19:36:44 2200.000
Cosmos 2499 12 Feb 19:33:37 19:41:43 47° 71° (ENE) 19:49:10 435.465 / 435.565
DELFI C3 12 Feb 19:40:16 19:43:17 21° 65° (ENE) 19:46:20 145.870
HUMSAT D 12 Feb 19:42:34 19:43:31 11° 58° (ENE) 19:44:28 437.325/437.525
ZACube-1 12 Feb 19:47:28 19:51:16 35° 69° (ENE) 19:55:04 437.345
HO-68 12 Feb 19:49:19 19:56:13 48° 261° (W) 20:03:10 435.675
FUNcube-1 12 Feb 19:54:45 19:58:39 40° 70° (ENE) 20:02:32 145.935
COMPASS 1 12 Feb 19:59:31 20:03:32 48° 261° (W) 20:07:37 437.405
PRISM 12 Feb 20:05:57 20:10:09 77° 287° (WNW) 20:14:18 437.425
ISS 12 Feb 20:09:25 20:12:39 66° 210° (SSW) 20:15:52 145.825
STRAND 1 12 Feb 20:12:35 20:17:06 31° 296° (WNW) 20:21:36 437.568
CUTE 1.7 + AOD 2 12 Feb 20:19:59 20:22:59 19° 269° (W) 20:26:01 437.475
SEEDS 12 Feb 20:20:16 20:23:38 23° 267° (W) 20:27:03 437.485
Oscar 11 12 Feb 20:22:27 20:26:45 79° 259° (W) 20:31:06 145.826/435.025
GONETS M04 12 Feb 20:22:27 20:30:51 51° 271° (W) 20:39:15
AAUSAT CUBESAT 2 12 Feb 20:25:34 20:29:16 31° 264° (W) 20:33:01 437.432
PCSat 12 Feb 20:30:10 20:33:11 15° 256° (WSW) 20:36:13 145.827
AIST 2 12 Feb 20:31:42 20:33:50 14° 332° (NNW) 20:35:58 435.215
UWE-3 12 Feb 20:36:33 20:40:39 50° 260° (W) 20:44:43 435.000/436.395/437.385
DX 1 12 Feb 20:42:08 20:43:51 12° 57° (ENE) 20:45:34 434.975-435.025
CUBEBUG 2 12 Feb 20:42:55 20:46:45 32° 263° (W) 20:50:33 437.445
50 SAT 12 Feb 20:51:16 20:52:49 12° 61° (ENE) 20:54:23 437.505
AIST 1 12 Feb 20:55:28 20:59:51 80° 82° (E) 21:04:09
ESTCUBE 1 12 Feb 21:01:54 21:05:07 19° 62° (ENE) 21:08:22 437.505/2401.250
ANTELSAT 12 Feb 21:04:20 21:06:32 14° 89° (E) 21:08:45 437.575/2403.000
TIGRISAT 12 Feb 21:09:52 21:12:20 15° 90° (E) 21:14:49 435.000
DELFI C3 12 Feb 21:14:16 21:18:00 37° 263° (W) 21:21:45 145.870
HUMSAT D 12 Feb 21:14:26 21:18:30 89° 256° (WSW) 21:22:37 437.325/437.525
RS-15 12 Feb 21:16:54 21:27:35 38° 253° (WSW) 21:38:24 29.354- 29.394
ZACube-1 12 Feb 21:24:19 21:27:40 23° 266° (W) 21:31:01 437.345
Cosmos 2499 12 Feb 21:27:03 21:34:45 42° 274° (W) 21:41:54 435.465 / 435.565
FUNcube-1 12 Feb 21:31:58 21:35:05 20° 267° (W) 21:38:13 145.935
VELOX 1 12 Feb 21:45:11 21:49:24 42° 69° (ENE) 21:53:37 145.980
ISS 12 Feb 21:47:30 21:48:33 11° 227° (SW) 21:49:36 145.825
UNISAT 6 12 Feb 21:54:28 21:58:38 42° 99° (E) 22:02:51 437.425
UKube-1 12 Feb 21:57:20 22:01:32 51° 71° (ENE) 22:05:45 .
POPSAT HIP 1 12 Feb 22:00:25 22:02:07 12° 89° (E) 22:03:50 437.405
AISAT 12 Feb 22:02:12 22:06:38 65° 73° (ENE) 22:11:04 437.250
SPROUT 12 Feb 22:02:14 22:05:25 21° 63° (ENE) 22:08:37 437.525
NANOSAT C BR1 12 Feb 22:02:55 22:04:47 13° 89° (E) 22:06:39 145.865
DUCHIFAT 1 12 Feb 22:03:03 22:04:43 12° 89° (E) 22:06:22 145.980
QB50P1 12 Feb 22:11:55 22:14:37 16° 91° (E) 22:17:18 145.935-145.965
CUBEBUG 1 12 Feb 22:12:29 22:16:53 66° 73° (ENE) 22:21:18 437.445
DX 1 12 Feb 22:14:58 22:19:22 89° 94° (E) 22:23:47 434.975-435.025
50 SAT 12 Feb 22:22:41 22:26:22 64° 259° (W) 22:30:05 437.505
AIST 1 12 Feb 22:35:52 22:36:43 11° 279° (W) 22:37:36
ESTCUBE 1 12 Feb 22:37:07 22:41:33 55° 260° (W) 22:46:03 437.505/2401.250
ANTELSAT 12 Feb 22:39:22 22:43:42 68° 287° (WNW) 22:48:07 437.575/2403.000
BEESAT 3 12 Feb 22:39:57 22:42:09 14° 30° (NNE) 22:44:18 437.485
TIGRISAT 12 Feb 22:45:09 22:49:27 62° 287° (WNW) 22:53:48 435.000
BUGSAT 1 12 Feb 22:49:42 22:52:40 19° 93° (E) 22:55:35 437.445
POLYITAN 1 12 Feb 23:04:50 23:08:59 58° 101° (E) 23:13:08 437.675
QB50P2 12 Feb 23:05:18 23:09:29 61° 102° (ESE) 23:13:39 145.880/145.840
CUSAT 1 12 Feb 23:06:02 23:09:39 14° 77° (ENE) 23:13:13 437.405
BEESAT 2 12 Feb 23:09:52 23:12:29 17° 33° (NNE) 23:15:07 435.950
Cosmos 2491 12 Feb 23:17:20 23:22:17 16° 51° (NE) 23:27:13 435.465 / 435.565
VELOX 1 12 Feb 23:22:32 23:26:03 22° 267° (W) 23:29:35 145.980
UNISAT 6 12 Feb 23:31:45 23:35:08 22° 296° (WNW) 23:38:34 437.425
SWISSCUBE 12 Feb 23:32:19 23:35:31 18° 59° (ENE) 23:38:43 437.505
TISAT 1 12 Feb 23:33:09 23:37:20 66° 73° (ENE) 23:41:31 437.305
POPSAT HIP 1 12 Feb 23:34:13 23:38:25 71° 286° (WNW) 23:42:35 437.405
UKube-1 12 Feb 23:34:57 23:37:54 18° 268° (W) 23:40:51 .
DUCHIFAT 1 12 Feb 23:36:45 23:40:55 71° 286° (WNW) 23:45:05 145.980
NANOSAT C BR1 12 Feb 23:36:50 23:41:01 67° 286° (WNW) 23:45:09 145.865
SPROUT 12 Feb 23:37:00 23:41:08 45° 261° (W) 23:45:16 437.525
AISAT 12 Feb 23:41:02 23:43:35 15° 270° (W) 23:46:07 437.250
QB50P1 12 Feb 23:46:38 23:50:44 51° 289° (WNW) 23:54:48 145.935-145.965
CUBEBUG 1 12 Feb 23:51:11 23:53:37 14° 271° (W) 23:56:05 437.445
DX 1 12 Feb 23:55:46 23:56:13 10° 273° (W) 23:56:39 434.975-435.025
